| time (UTC) | temp F | wind direction | speed MPH | gust MPH | rain 1hr in | rain 24hr in | rain mn in | humidity % | barometer mb |
| 20260504231530 | 82 | 12 | 9.0 | 16.0 | 0.00 | 0.00 | 0.00 | 33 | 1010.2 |
| 20260504224531 | 83 | 349 | 6.0 | 13.0 | 0.00 | 0.00 | 0.00 | 33 | 1010.5 |
| 20260504223109 | 82 | 322 | 5.0 | 14.0 | 0.00 | 0.00 | 0.00 | 32 | 1010.7 |
| 20260504221530 | 82 | 349 | 5.0 | 16.0 | 0.00 | 0.00 | 0.00 | 31 | 1010.8 |
| 20260504220032 | 82 | 318 | 7.0 | 17.0 | 0.00 | 0.00 | 0.00 | 33 | 1011.0 |
| 20260504214532 | 81 | 354 | 7.0 | 14.0 | 0.00 | 0.00 | 0.00 | 33 | 1011.1 |
| 20260504213035 | 81 | 4 | 8.0 | 15.0 | 0.00 | 0.00 | 0.00 | 33 | 1011.2 |
| 20260504211608 | 81 | 358 | 7.0 | 14.0 | 0.00 | 0.00 | 0.00 | 33 | 1011.4 |
| 20260504210033 | 81 | 4 | 8.0 | 15.0 | 0.00 | 0.00 | 0.00 | 33 | 1011.5 |
| 20260504204530 | 82 | 7 | 7.0 | 15.0 | 0.00 | 0.00 | 0.00 | 32 | 1011.6 |
| 20260504203042 | 83 | 9 | 7.0 | 14.0 | 0.00 | 0.00 | 0.00 | 32 | 1011.8 |
| 20260504203032 | 83 | 13 | 7.0 | 15.0 | 0.00 | 0.00 | 0.00 | 32 | 1011.8 |
| 20260504200030 | 82 | 2 | 6.0 | 13.0 | 0.00 | 0.00 | 0.00 | 32 | 1011.9 |
| 20260504194532 | 82 | 10 | 9.0 | 17.0 | 0.00 | 0.00 | 0.00 | 33 | 1011.9 |
| 20260504193142 | 82 | 357 | 8.0 | 18.0 | 0.00 | 0.00 | 0.00 | 35 | 1012.0 |
| 20260504191611 | 82 | 358 | 8.0 | 14.0 | 0.00 | 0.00 | 0.00 | 37 | 1012.0 |
| 20260504190037 | 82 | 6 | 7.0 | 14.0 | 0.00 | 0.00 | 0.00 | 39 | 1012.2 |
| 20260504184648 | 81 | 18 | 6.0 | 12.0 | 0.00 | 0.00 | 0.00 | 40 | 1012.3 |
| 20260504183035 | 80 | 14 | 7.0 | 14.0 | 0.00 | 0.00 | 0.00 | 41 | 1012.2 |
| 20260504181530 | 78 | 24 | 7.0 | 12.0 | 0.00 | 0.00 | 0.00 | 42 | 1012.2 |
| 20260504180141 | 78 | 22 | 5.0 | 11.0 | 0.00 | 0.00 | 0.00 | 43 | 1012.2 |
| 20260504174530 | 77 | 23 | 4.0 | 9.0 | 0.00 | 0.00 | 0.00 | 42 | 1012.2 |
| 20260504173110 | 77 | 27 | 4.0 | 8.0 | 0.00 | 0.00 | 0.00 | 41 | 1012.2 |
| 20260504171529 | 78 | 360 | 2.0 | 8.0 | 0.00 | 0.00 | 0.00 | 41 | 1012.1 |
| 20260504170111 | 77 | 5 | 2.0 | 4.0 | 0.00 | 0.00 | 0.00 | 43 | 1012.1 |
| 20260504140111 | 58 | 186 | 0.0 | 2.0 | 0.00 | 0.00 | 0.00 | 64 | 1012.6 |
| 20260504081533 | 57 | 171 | 2.0 | 5.0 | 0.00 | 0.00 | 0.00 | 56 | 1012.7 |
| 20260504044607 | 62 | 200 | 2.0 | 5.0 | 0.00 | 0.00 | 0.00 | 50 | 1012.4 |
| 20260504043033 | 64 | 195 | 1.0 | 4.0 | 0.00 | 0.00 | 0.00 | 48 | 1012.2 |
| 20260504041607 | 65 | 180 | 0.0 | 4.0 | 0.00 | 0.00 | 0.00 | 47 | 1012.1 |
| 20260504040046 | 67 | 220 | 0.0 | 2.0 | 0.00 | 0.00 | 0.00 | 45 | 1011.8 |
| 20260504033106 | 70 | 195 | 1.0 | 5.0 | 0.00 | 0.00 | 0.00 | 42 | 1011.5 |
| 20260504030109 | 71 | 337 | 0.0 | 0.0 | 0.00 | 0.00 | 0.00 | 41 | 1011.4 |
| 20260504024536 | 73 | 337 | 2.0 | 4.0 | 0.00 | 0.00 | 0.00 | 39 | 1011.4 |
| 20260504023033 | 74 | 330 | 3.0 | 4.0 | 0.00 | 0.00 | 0.00 | 38 | 1011.4 |
| 20260504021528 | 76 | 343 | 4.0 | 6.0 | 0.00 | 0.00 | 0.00 | 36 | 1011.4 |
| 20260504020137 | 78 | 1 | 3.0 | 6.0 | 0.00 | 0.00 | 0.00 | 35 | 1011.5 |
| 20260504014609 | 78 | 348 | 3.0 | 6.0 | 0.00 | 0.00 | 0.00 | 34 | 1011.6 |
| 20260504013034 | 79 | 354 | 3.0 | 7.0 | 0.00 | 0.00 | 0.00 | 32 | 1011.7 |
| 20260504011610 | 79 | 14 | 3.0 | 7.0 | 0.00 | 0.00 | 0.00 | 31 | 1011.8 |
| 20260504010029 | 80 | 17 | 4.0 | 8.0 | 0.00 | 0.00 | 0.00 | 31 | 1012.0 |
| 20260504004535 | 80 | 4 | 4.0 | 10.0 | 0.00 | 0.00 | 0.00 | 31 | 1012.2 |
| 20260504003109 | 82 | 57 | 5.0 | 12.0 | 0.00 | 0.00 | 0.00 | 28 | 1012.4 |
| 20260504000030 | 83 | 30 | 6.0 | 13.0 | 0.00 | 0.00 | 0.00 | 28 | 1012.4 |
| 20260503234531 | 83 | 6 | 3.0 | 8.0 | 0.00 | 0.00 | 0.00 | 27 | 1012.6 |
| 20260503233109 | 83 | 40 | 5.0 | 9.0 | 0.00 | 0.00 | 0.00 | 28 | 1012.8 |